FLOCK 2E-10

Last updated on Thu Mar 01 2018 00:15:07 GMT+0000 (Greenwich Mean Time)

1 41572U 98067JW 18059.08879125 .09590036 12472-4 58925-3 0 9996 2 41572 51.6219 132.2961 0002556 327.8609 33.2166 16.41347157 99987

Satellite not in orbit